Regional Weather Roundup
Issued by NWS Green Bay, WI

Home | Current Version | Previous Version | Graphics & Text | Print | Product List | Glossary Off
Versions: 1 2 3 4 5 6 7 8 9 10 11 12 13 14 15 16 17 18 19 20 21 22 23 24 25 26 27 28 29 30 31 32 33 34 35 36 37 38 39 40 41 42 43 44 45 46 47 48 49 50

000
ASUS43 KGRB 011110
RWRGRB

NORTH-CENTRAL AND NORTHEAST WISCONSIN REGIONAL WEATHER ROUNDUP
NATIONAL WEATHER SERVICE GREEN BAY WI
600 AM CDT MON SEP 01 2014

WIZ005-009-010>012-018-019-011200-
NORTH CENTRAL WISCONSIN

CITY           SKY/WX    TMP DP  RH WIND       PRES   REMARKS
IRONWOOD       NOT AVBL
MANITOWISH WTR CLOUDY    64  63  97 SW10G17   29.65F
ARBOR VITAE    CLOUDY    64  62  91 SW8       29.67F
EAGLE RIVER    LGT RAIN  64  63  94 SW6       29.67S
LAND O LAKES   CLOUDY    65  62  91 SW7       29.66F
RHINELANDER    LGT RAIN  63  60  90 SW8       29.68F
PHILLIPS       CLOUDY    64  63  97 S7        29.66S
ANTIGO         CLOUDY    63  61  92 SW5       29.69F
TOMAHAWK       CLOUDY    62  60  93 W3        29.67F
MERRILL        CLOUDY    64  62  93 CALM      29.65F
$$

WIZ013-073-011200-
NORTHEAST WISCONSIN

CITY           SKY/WX    TMP DP  RH WIND       PRES   REMARKS
IRON MOUNTAIN  MOCLDY    68  65  90 S9        29.66F
MARINETTE      PTCLDY    70  66  88 S9        29.68S
OCONTO         CLEAR     69  69 100 S7        29.68F
$$

WIZ017-030-035>037-045-011200-
CENTRAL WISCONSIN

CITY           SKY/WX    TMP DP  RH WIND       PRES   REMARKS
MEDFORD        CLOUDY    61  60  97 CALM      29.65F
WAUSAU         CLOUDY    67  60  78 CALM      29.64F
MOSINEE        DRIZZLE   64  61  88 S3        29.67F
MARSHFIELD     CLOUDY    63  61  93 SE5       29.65F
WISC RAPIDS    CLOUDY    67  59  75 S6        29.67F
STEVENS POINT  CLOUDY    65  58  79 S3        29.67F
WAUPACA        CLOUDY    71  61  71 S7        29.68F
SHAWANO        PTCLDY    71  68  89 S6        29.68S
CLINTONVILLE   MOCLDY    70  64  83 S9        29.68F
$$

WIZ038-039-048-051-011200-
FOX VALLEY

CITY           SKY/WX    TMP DP  RH WIND       PRES   REMARKS
NWS GREEN BAY  PTCLDY    70  68  93 S8        29.70S
APPLETON       MOCLDY    70  70 100 S10       29.72S
OSHKOSH        CLOUDY    70  68  93 S9        29.70F
FOND DU LAC    CLOUDY    70  66  87 S12       29.71F
$$

WIZ022-050-052-011200-
EAST CENTRAL WISCONSIN

CITY           SKY/WX    TMP DP  RH WIND       PRES   REMARKS
STURGEON BAY   CLOUDY    68  64  88 S12G17    29.72F
MANITOWOC      FOG       66  66 100 S10       29.73F VSB 1/2
SHEBOYGAN      PTCLDY    68  66  93 S6        29.74F FOG
$$

LMZ563-521-522-541>543-011200-
LAKESHORE

STATION/POSITION TIME  TEMP    WIND        PRES    VSBY  WAVE
                       AIR SEA DIR/SP/G                  HT/PER
                 (UTC) (F)     (DEG/KT/KT) (MB)    (MI)  (FT/S)
SHEBOYGAN LKSHOR 1100   69 55  180/ 15/ 16 1006.8F
KEWAUNEE LKSHORE 1100   60     180/  9/ 10 1005.9S
NORTHPORT PIER   1100   68     170/  8/ 14 1006.4S
N MID LAKE BUOY  1100   68 65  180/ 17/ 19 1006.1F         3/ 4
S GREEN BAY BUOY 1100   71     VRB 14/ 17  1006.5S
CHAMBERS ISLAND  1100   69     140/  6/ 12 1005.8S
MENOMINEE LKSHOR 1100   69     160/ 12/ 15 1006.1S
$$


USA.gov is the U.S. government's official web portal to all federal, state and local government web resources and services.